Location: St. Louis
(38.6270°N, 90.1994°W)
Time: 20:35:50
(UTC-06:00)

Altair - Pass Details

Date: 30 November 2021
Orbit: 1501 x 1683 km, 47.2° (Epoch: 26 January)

Event Time Altitude Azimuth Distance (km) Brightness Sun altitude
Rises 18:55:25 0° 276° (W) 4,710 11.3 -25.9°
Reaches altitude 10° 18:58:39 10° 282° (WNW) 3,706 10.4 -26.5°
Maximum altitude 19:07:39 50° 356° (N) 1,851 7.8 -28.3°
Enters shadow 19:10:05 42° 37° (NE) 2,044 7.8 -28.7°
